Meath Environmental Platform

Observations for Trim Patrick St

Time AQI Temp °C Hum % Pres Pa CO μg/m³ H₂S μg/m³ NO μg/m³ NO₂ μg/m³ O₃ μg/m³ SO₂ μg/m³ PM1 μg/m³ PM2.5 μg/m³ PM10 μg/m³
Thursday 27 August 2026
09:14 2 20 79 38,460 0.14 0 1.15 7.54 44.84 1.21 22.57 31.97 34.5
09:13 2 20 79 38,460 0.14 0 1.07 8.27 33.81 0.73 21.72 30.55 32.37
09:12 2 20 79 38,460 0.12 0 0.94 11.16 30.15 0.71 24.29 34.09 39.43
09:11 2 20 79 38,460 0.12 0 1.16 9.08 39.96 0.28 21.72 29.13 32.34
09:10 2 20 79 38,460 0.12 0 1.31 11.87 33.25 0.26 20 29.85 30.97
09:09 2 20 79 38,460 0.14 0 1.78 13.06 32.58 0 24.29 34.03 36.49
09:08 2 19.9 80 38,460 0.15 0 1.98 11.12 36.95 0 22.57 33.28 35.68
09:07 2 19.9 80 38,460 0.19 0 1.95 12.02 34.58 0.53 23.43 31.82 33.46
09:06 2 19.9 80 38,460 0.16 0 1.7 13.67 33.99 0.17 23.43 32.51 35.5
09:05 2 19.8 80 38,460 0.17 0 1.43 12.65 24.54 0.61 21.72 31.78 34.05
09:04 2 19.8 80 38,460 0.17 0 1.24 17.66 34.42 0.54 22.57 33.18 34.74
09:03 2 19.7 81 38,460 0.16 0 1.32 13.87 27.15 0.24 20 30.34 31.89
09:02 2 19.7 81 38,460 0.14 0 1.22 11.76 37.91 0.99 21.72 31.04 32.58
09:01 2 19.7 81 38,460 0.15 0 1.23 10.76 34.38 0.92 21.72 30.34 30.51
09:00 2 19.6 80 38,460 0.15 0 1.33 14.94 33.66 0 22.57 32.46 34.71
08:59 2 19.6 81 38,460 0.16 0 1.22 13.54 32.03 0 21.72 31.01 33.88
08:58 2 19.6 81 38,460 0.14 0 0.91 18.02 33.38 0 21.72 32.43 33.95
08:57 2 19.5 81 38,460 0.16 0 1.35 12.21 24.41 0.5 20.86 31.69 33.16
08:56 2 19.5 80 38,460 0.17 0 1.29 18.13 33.82 0 21.72 33.16 36.09
08:55 2 19.5 81 38,460 0.17 0 1.51 9.39 36.8 0.89 22.57 30.97 32.41